Change the Weather History Date:

Monday, November 12, 2012

  Actual Average (KBAD) Record (KBAD)
Temperature  
Mean Temperature 46 °F -  
Max Temperature 58 °F 63 °F 82 °F (2003)
Min Temperature 35 °F 45 °F 34 °F (2013)
Degree Days  
Heating Degree Days 18    
Moisture  
Dew Point 38 °F    
Average Humidity 71    
Maximum Humidity 92    
Minimum Humidity 29    
Precipitation  
Precipitation 0.00 in - - ()
Sea Level Pressure  
Sea Level Pressure 30.39 in    
Wind  
Wind Speed 5 mph ()    
Max Wind Speed 13 mph    
Max Gust Speed 18 mph    
Visibility 10.0 miles    
Events Rain , Thunderstorm    
Averages and records for this station are not official NWS values.
T = Trace of Precipitation, MM = Missing Value Source: Averaged Metar Reports

Daily Weather History Graph

Daily Weather History Graph

Search for Another Location

Airport or City:

Trip Planner

Search our weather history database for the weather conditions in past years. The results will help you decide how hot, cold, wet, or windy it might be!

Date:

Astronomy

Nov. 12, 2012 Rise Set
Actual Time 6:40 AM CST 5:13 PM CST
Civil Twilight 6:14 AM CST 5:39 PM CST
Nautical Twilight 5:45 AM CST 6:09 PM CST
Astronomical Twilight 5:16 AM CST 6:38 PM CST
Moon 5:09 AM CST (11/12) 4:17 PM CST (11/12)
Length of Visible Light 11h 24m
Length of Day
10h 32m
Waning Crescent, 2% of the Moon is Illuminated
Nov 12
Waning Crescent
Nov 13
New
Nov 20
First Quarter
Nov 28
Full
Dec 6
Last Quarter

Hourly Weather History & Observations

Time (CST) Temp. Windchill Dew Point Humidity Pressure Visibility Wind Dir Wind Speed Gust Speed Precip Events Conditions
12:15 AM 54.5 °F - 51.1 °F 88% 30.17 in 10.0 mi NW 3.5 mph - N/A Thunderstorm Overcast
12:55 AM 54.5 °F - 51.8 °F 91% 30.18 in 10.0 mi NW 3.5 mph - N/A Thunderstorm Overcast
1:15 AM 54.5 °F - 52.0 °F 91% 30.18 in 10.0 mi Calm Calm - N/A   Overcast
1:35 AM 54.7 °F - 52.3 °F 92% 30.21 in 10.0 mi Calm Calm - N/A Rain Light Rain
1:55 AM 55.4 °F - 52.7 °F 91% 30.21 in 10.0 mi Calm Calm - N/A Rain , Thunderstorm Rain
2:15 AM 55.0 °F - 52.7 °F 92% 30.20 in 10.0 mi NW 3.5 mph - N/A   Overcast
2:35 AM 54.9 °F - 52.3 °F 91% 30.20 in 10.0 mi NW 5.8 mph - N/A   Overcast
2:55 AM 54.7 °F - 52.2 °F 91% 30.20 in 10.0 mi NW 6.9 mph - N/A   Overcast
3:15 AM 54.5 °F - 51.8 °F 91% 30.21 in 10.0 mi NW 8.1 mph - N/A   Overcast
3:35 AM 54.0 °F - 50.9 °F 89% 30.23 in 10.0 mi NW 9.2 mph - N/A   Overcast
3:55 AM 53.1 °F - 50.0 °F 89% 30.23 in 10.0 mi NW 6.9 mph - N/A   Overcast
4:15 AM 52.0 °F - 48.2 °F 87% 30.24 in 10.0 mi NNW 11.5 mph - N/A   Overcast
4:35 AM 50.9 °F - 46.4 °F 85% 30.26 in 10.0 mi NNW 10.4 mph 16.1 mph N/A   Overcast
4:55 AM 49.3 °F - 44.6 °F 84% 30.28 in 10.0 mi NNW 12.7 mph 18.4 mph N/A   Overcast
5:15 AM 48.9 °F - 44.2 °F 84% 30.29 in 10.0 mi NW 9.2 mph 17.3 mph N/A   Overcast
5:35 AM 48.4 °F - 43.7 °F 84% 30.30 in 10.0 mi NW 6.9 mph - N/A   Overcast
5:55 AM 48.2 °F - 43.7 °F 84% 30.32 in 10.0 mi NW 8.1 mph - N/A   Overcast
6:15 AM 47.3 °F - 43.2 °F 86% 30.33 in 10.0 mi NNW 9.2 mph - N/A   Overcast
6:55 AM 44.6 °F 39.7 °F 40.1 °F 84% 30.37 in 10.0 mi North 9.2 mph - N/A   Scattered Clouds
7:15 AM 44.2 °F 40.3 °F 39.2 °F 82% 30.38 in 10.0 mi North 6.9 mph - N/A   Clear
7:35 AM 44.6 °F 39.7 °F 39.2 °F 81% 30.40 in 10.0 mi NNW 9.2 mph - N/A   Clear
7:55 AM 44.6 °F 39.2 °F 38.8 °F 80% 30.42 in 10.0 mi NNW 10.4 mph - N/A   Scattered Clouds
8:15 AM 44.2 °F 38.8 °F 39.0 °F 82% 30.42 in 10.0 mi North 10.4 mph - N/A   Mostly Cloudy
8:35 AM 44.2 °F 39.7 °F 38.7 °F 81% 30.44 in 10.0 mi North 8.1 mph - N/A   Overcast
8:55 AM 45.0 °F 39.3 °F 38.5 °F 78% 30.44 in 10.0 mi North 11.5 mph 18.4 mph N/A   Overcast
9:15 AM 45.9 °F 42.3 °F 38.1 °F 74% 30.45 in 10.0 mi North 6.9 mph - N/A   Mostly Cloudy
9:35 AM 48.0 °F - 38.7 °F 70% 30.45 in 10.0 mi NW 11.5 mph - N/A   Mostly Cloudy
9:55 AM 48.6 °F - 37.6 °F 66% 30.46 in 10.0 mi North 8.1 mph - N/A   Scattered Clouds
10:15 AM 49.6 °F - 37.0 °F 62% 30.46 in 10.0 mi NNE 4.6 mph - N/A   Clear
10:35 AM 50.2 °F - 36.0 °F 58% 30.45 in 10.0 mi North 5.8 mph - N/A   Clear
10:55 AM 52.0 °F - 36.1 °F 55% 30.45 in 10.0 mi North 9.2 mph - N/A   Clear
11:15 AM 52.9 °F - 33.8 °F 48% 30.44 in 10.0 mi North 9.2 mph - N/A   Clear
11:35 AM 53.8 °F - 33.6 °F 46% 30.43 in 10.0 mi North 6.9 mph - N/A   Clear
11:55 AM 54.0 °F - 31.8 °F 43% 30.42 in 10.0 mi North 8.1 mph 16.1 mph N/A   Clear
12:15 PM 55.6 °F - 31.6 °F 40% 30.42 in 10.0 mi NE 4.6 mph - N/A   Clear
12:35 PM 55.8 °F - 30.9 °F 39% 30.42 in 10.0 mi ENE 6.9 mph - N/A   Clear
12:55 PM 56.5 °F - 30.6 °F 37% 30.41 in 10.0 mi North 8.1 mph 18.4 mph N/A   Clear
1:15 PM 57.7 °F - 30.7 °F 36% 30.41 in 10.0 mi North 8.1 mph - N/A   Clear
1:35 PM 57.6 °F - 28.6 °F 33% 30.42 in 10.0 mi North 8.1 mph - N/A   Clear
1:55 PM 57.9 °F - 27.7 °F 32% 30.42 in 10.0 mi North 8.1 mph - N/A   Clear
2:15 PM 57.9 °F - 26.2 °F 30% 30.42 in 10.0 mi NNW 10.4 mph 17.3 mph N/A   Clear
2:35 PM 58.6 °F - 26.2 °F 29% 30.42 in 10.0 mi NE 6.9 mph - N/A   Clear
2:55 PM 58.6 °F - 27.3 °F 30% 30.43 in 10.0 mi NNE 8.1 mph - N/A   Clear
3:15 PM 58.1 °F - 26.1 °F 29% 30.42 in 10.0 mi NE 4.6 mph - N/A   Clear
3:35 PM 57.7 °F - 26.8 °F 31% 30.43 in 10.0 mi North 9.2 mph - N/A   Clear
4:35 PM 54.9 °F - 27.7 °F 35% 30.44 in 10.0 mi NNE 3.5 mph - N/A   Clear
4:55 PM 53.2 °F - 30.6 °F 42% 30.45 in 10.0 mi Calm Calm - N/A   Clear
5:15 PM 51.1 °F - 31.3 °F 47% 30.45 in 10.0 mi Calm Calm - N/A   Clear
5:35 PM 48.6 °F - 34.5 °F 58% 30.45 in 10.0 mi Calm Calm - N/A   Clear
5:55 PM 45.9 °F - 36.0 °F 68% 30.46 in 10.0 mi Calm Calm - N/A   Clear
6:15 PM 44.6 °F - 37.4 °F 76% 30.46 in 10.0 mi Calm Calm - N/A   Clear
6:55 PM 43.3 °F - 35.8 °F 75% 30.47 in 10.0 mi Calm Calm - N/A   Clear
7:15 PM 41.9 °F - 36.0 °F 79% 30.47 in 10.0 mi Calm Calm - N/A   Clear
7:35 PM 41.0 °F - 34.9 °F 79% 30.47 in 10.0 mi Calm Calm - N/A   Clear
7:55 PM 40.6 °F - 35.6 °F 82% 30.47 in 10.0 mi Calm Calm - N/A   Clear
8:15 PM 39.9 °F - 35.8 °F 85% 30.47 in 10.0 mi Calm Calm - N/A   Clear
8:35 PM 38.7 °F - 35.4 °F 88% 30.47 in 10.0 mi Calm Calm - N/A   Clear
8:55 PM 38.7 °F 36.3 °F 35.6 °F 89% 30.47 in 10.0 mi North 3.5 mph - N/A   Clear
9:15 PM 38.7 °F - 34.2 °F 84% 30.47 in 10.0 mi Calm Calm - N/A   Clear
9:35 PM 38.5 °F 36.1 °F 33.3 °F 81% 30.47 in 10.0 mi North 3.5 mph - N/A   Clear
9:55 PM 37.8 °F 35.3 °F 33.8 °F 86% 30.47 in 10.0 mi North 3.5 mph - N/A   Clear
10:15 PM 36.9 °F - 33.3 °F 87% 30.47 in 10.0 mi Calm Calm - N/A   Clear
10:35 PM 36.9 °F - 32.9 °F 86% 30.48 in 10.0 mi Calm Calm - N/A   Clear
10:55 PM 35.8 °F - 33.4 °F 91% 30.48 in 10.0 mi Calm Calm - N/A   Clear
11:15 PM 35.8 °F - 33.3 °F 91% 30.48 in 10.0 mi Calm Calm - N/A   Clear
11:35 PM 35.4 °F - 32.7 °F 90% 30.48 in 10.0 mi Calm Calm - N/A   Clear
11:55 PM 35.8 °F - 33.8 °F 92% 30.48 in 10.0 mi Calm Calm - N/A   Clear